Вернуться в каталог

BREEZE-KM R/B

АктивенPO
NORAD 39252·ROCKET BODY·🇷🇺 Russia

Запущен Sep 11, 2013 с Plesetsk Cosmodrome

Loading…

Ближайшие Пролёты (ближайшие 24 часа)

TLE

СвежийSource: Space-Track

Эпоха: Sep 14, 2026, 21:30 UTC

1 39252U 13048D   26257.89627381 -.00000004  00000-0 -52841-4 0  9993
2 39252  82.4804  76.2272 0220322 328.9119  29.9096 12.79945501607763

Отслеживайте BREEZE-KM R/B в реальном времени с AllMySat

Download on the App Store